Aberdeen / Amory, MS

7:39 PM CST on December 13, 2019 (GMT -0600)
Aberdeen / Amory

Weather History for KM40 - November, 2019

Change the Weather History Date:

Thursday, November 14, 2019

  Actual Average (KCBM) Record (KCBM)
Temperature  
Mean Temperature 54 °F -  
Max Temperature 64 °F 62 °F 82 °F (1999)
Min Temperature 44 °F 42 °F 23 °F (2013)
Degree Days  
Heating Degree Days 11    
Growing Degree Days 4 (Base 50)    
Moisture  
Dew Point 44 °F    
Average Humidity 63    
Maximum Humidity 67    
Minimum Humidity 59    
Precipitation  
Precipitation 0.00 in - - ()
Sea Level Pressure  
Sea Level Pressure 30.30 in    
Wind  
Wind Speed 1 mph ()    
Max Wind Speed 8 mph    
Max Gust Speed -    
Visibility 10.0 miles    
Events      
Averages and records for this station are not official NWS values.
T = Trace of Precipitation, MM = Missing Value Source: Averaged Metar Reports

Daily Weather History Graph

Daily Weather History Graph

Search for Another Location

Airport or City:

Astronomy

Nov. 14, 2019 Rise Set
Actual Time 6:25 AM CST 4:51 PM CST
Civil Twilight 5:58 AM CST 5:17 PM CST
Nautical Twilight 5:28 AM CST 5:47 PM CST
Astronomical Twilight 4:58 AM CST 6:17 PM CST
Moon 6:40 PM CST 8:17 AM CST
Length of Visible Light 11h 19m
Length of Day
10h 26m
Waning Gibbous, 95% of the Moon is Illuminated
Nov 14
Waning Gibbous
Nov 19
Last Quarter
Nov 26
New
Dec 4
First Quarter
Dec 11
Full

Hourly Weather History & Observations

Time (CST) Temp. Dew Point Humidity Pressure Visibility Wind Dir Wind Speed Gust Speed Precip Events Conditions
12:15 AM 44.6 °F 32.0 °F 61% 30.28 in 10.0 mi Calm Calm - N/A   Clear
12:35 AM 44.6 °F 32.0 °F 61% 30.28 in 10.0 mi Calm Calm - N/A   Clear
12:55 AM 44.6 °F 32.0 °F 61% 30.28 in 10.0 mi Calm Calm - N/A   Clear
1:55 AM 46.4 °F 33.8 °F 62% 30.28 in 10.0 mi Calm Calm - N/A   Partly Cloudy
2:35 AM 48.2 °F 35.6 °F 62% 30.28 in 10.0 mi Calm Calm - N/A   Scattered Clouds
2:55 AM 48.2 °F 35.6 °F 62% 30.27 in 10.0 mi Calm Calm - N/A   Mostly Cloudy
3:55 AM 48.2 °F 35.6 °F 62% 30.29 in 10.0 mi Calm Calm - N/A   Overcast
4:15 AM 48.2 °F 35.6 °F 62% 30.30 in 10.0 mi NNW 4.6 mph - N/A   Overcast
4:35 AM 48.2 °F 35.6 °F 62% 30.30 in 10.0 mi NNW 4.6 mph - N/A   Overcast
4:55 AM 48.2 °F 37.4 °F 66% 30.30 in 10.0 mi Calm Calm - N/A   Overcast
5:15 AM 48.2 °F 37.4 °F 66% 30.30 in 10.0 mi Calm Calm - N/A   Overcast
5:35 AM 50.0 °F 37.4 °F 62% 30.30 in 10.0 mi Calm Calm - N/A   Overcast
5:55 AM 50.0 °F 37.4 °F 62% 30.30 in 10.0 mi Calm Calm - N/A   Overcast
6:15 AM 50.0 °F 37.4 °F 62% 30.30 in 10.0 mi Calm Calm - N/A   Overcast
6:35 AM 50.0 °F 37.4 °F 62% 30.29 in 10.0 mi Calm Calm - N/A   Overcast
6:55 AM 50.0 °F 37.4 °F 62% 30.30 in 10.0 mi Calm Calm - N/A   Scattered Clouds
7:15 AM 50.0 °F 39.2 °F 66% 30.30 in 10.0 mi Calm Calm - N/A   Clear
7:35 AM 51.8 °F 39.2 °F 62% 30.31 in 10.0 mi Calm Calm - N/A   Clear
7:55 AM 53.6 °F 41.0 °F 62% 30.31 in 10.0 mi Calm Calm - N/A   Scattered Clouds
8:15 AM 53.6 °F 41.0 °F 62% 30.31 in 10.0 mi Calm Calm - N/A   Partly Cloudy
8:35 AM 55.4 °F 42.8 °F 63% 30.33 in 10.0 mi Calm Calm - N/A   Clear
8:55 AM 57.2 °F 44.6 °F 63% 30.33 in 10.0 mi South 8.1 mph - N/A   Mostly Cloudy
9:15 AM 57.2 °F 44.6 °F 63% 30.33 in 10.0 mi SE 6.9 mph - N/A   Mostly Cloudy
9:55 AM 59.0 °F 46.4 °F 63% 30.33 in 10.0 mi South 6.9 mph - N/A   Mostly Cloudy
10:15 AM 59.0 °F 46.4 °F 63% 30.34 in 10.0 mi SSW 4.6 mph - N/A   Overcast
10:35 AM 59.0 °F 46.4 °F 63% 30.33 in 10.0 mi Calm Calm - N/A   Overcast
10:55 AM 59.0 °F 46.4 °F 63% 30.32 in 10.0 mi SSE 3.5 mph - N/A   Overcast
11:15 AM 60.8 °F 48.2 °F 63% 30.31 in 10.0 mi Calm Calm - N/A   Overcast
11:35 AM 60.8 °F 48.2 °F 63% 30.31 in 10.0 mi West 4.6 mph - N/A   Overcast
11:55 AM 60.8 °F 48.2 °F 63% 30.30 in 10.0 mi West 4.6 mph - N/A   Overcast
12:35 PM 62.6 °F 48.2 °F 59% 30.28 in 10.0 mi Calm Calm - N/A   Overcast
12:55 PM 62.6 °F 48.2 °F 59% 30.28 in 10.0 mi Calm Calm - N/A   Overcast
1:15 PM 62.6 °F 50.0 °F 63% 30.27 in 10.0 mi North 4.6 mph - N/A   Overcast
1:35 PM 64.4 °F 51.8 °F 64% 30.27 in 10.0 mi North 4.6 mph - N/A   Overcast
1:55 PM 64.4 °F 51.8 °F 64% 30.27 in 10.0 mi NNW 3.5 mph - N/A   Overcast
2:15 PM 64.4 °F 51.8 °F 64% 30.28 in 10.0 mi NW 5.8 mph - N/A   Overcast
2:35 PM 64.4 °F 51.8 °F 64% 30.27 in 10.0 mi NW 4.6 mph - N/A   Overcast
2:55 PM 64.4 °F 51.8 °F 64% 30.28 in 10.0 mi NW 5.8 mph - N/A   Overcast
3:15 PM 62.6 °F 50.0 °F 63% 30.28 in 10.0 mi NNW 5.8 mph - N/A   Overcast
3:35 PM 62.6 °F 50.0 °F 63% 30.28 in 10.0 mi NNW 6.9 mph - N/A   Overcast
4:15 PM 62.6 °F 50.0 °F 63% 30.27 in 10.0 mi NNW 4.6 mph - N/A   Overcast
4:35 PM 62.6 °F 50.0 °F 63% 30.27 in 10.0 mi North 3.5 mph - N/A   Overcast
4:55 PM 62.6 °F 50.0 °F 63% 30.28 in 10.0 mi Calm Calm - N/A   Overcast
5:15 PM 60.8 °F 48.2 °F 63% 30.28 in 10.0 mi Calm Calm - N/A   Overcast
5:35 PM 60.8 °F 48.2 °F 63% 30.29 in 10.0 mi Calm Calm - N/A   Overcast
5:55 PM 60.8 °F 48.2 °F 63% 30.28 in 10.0 mi Calm Calm - N/A   Overcast
6:15 PM 59.0 °F 48.2 °F 67% 30.29 in 10.0 mi Calm Calm - N/A   Overcast
6:35 PM 59.0 °F 46.4 °F 63% 30.29 in 10.0 mi South 4.6 mph - N/A   Overcast
6:55 PM 59.0 °F 46.4 °F 63% 30.29 in 10.0 mi NNW 4.6 mph - N/A   Overcast
7:15 PM 59.0 °F 46.4 °F 63% 30.29 in 10.0 mi Calm Calm - N/A   Overcast
7:35 PM 59.0 °F 46.4 °F 63% 30.29 in 10.0 mi North 3.5 mph - N/A   Overcast
7:55 PM 59.0 °F 46.4 °F 63% 30.31 in 10.0 mi Calm Calm - N/A   Mostly Cloudy
8:15 PM 57.2 °F 46.4 °F 67% 30.31 in 10.0 mi Calm Calm - N/A   Overcast
8:35 PM 59.0 °F 46.4 °F 63% 30.31 in 10.0 mi Calm Calm - N/A   Scattered Clouds
8:55 PM 57.2 °F 46.4 °F 67% 30.32 in 10.0 mi Calm Calm - N/A   Clear
9:55 PM 57.2 °F 44.6 °F 63% 30.30 in 10.0 mi North 4.6 mph - N/A   Partly Cloudy
10:15 PM 57.2 °F 44.6 °F 63% 30.31 in 10.0 mi Calm Calm - N/A   Clear
11:15 PM 57.2 °F 44.6 °F 63% 30.31 in 10.0 mi Calm Calm - N/A   Clear
11:35 PM 55.4 °F 42.8 °F 63% 30.32 in 10.0 mi NNW 3.5 mph - N/A   Clear
11:55 PM 57.2 °F 44.6 °F 63% 30.32 in 10.0 mi NNW 5.8 mph - N/A   Clear